Погода в Алтае

Казахстан     49°43′32″N   84°16′28″E
темп.,
°C
ветер,
м/с
пор.,
м/с
влажн.,
%
обл.,
%
осадки,
мм/ч
давл.,
гПа
погр.,
м
2 марта, вт
вт200:00−6юв0097100 5.9 102321
03:00−6зюз0197100 3.7 102221
06:00−6в0097100 7.3 102221
09:00−5с0096100 2.3 102189
12:00−3с1196100 3.5 1020172
15:00−2ссв1196100 1.8 1018173
18:00−3св1198100 3.6 101727
21:00−3ссз1198100 2.7 101722
3 марта, ср
ср300:00−3юз1198100 6.7 101621
03:00−4ю2297100 2.8 101764
06:00−6ююз1295100 3.3 102021
09:00−5ююз1196100 0.3 102186
12:00−2ююз3687100 0.6 1021683
15:00−3ю478198 0.1 1022697
18:00−9ююв238571 0.1 102621
21:00−13ююв118758 0.0 103021
4 марта, чт
чт400:00−15в119075 0.1 103120
03:00−17вюв119430 0.0 103220
06:00−18в119332 0.0 103420
09:00−14юв008862 0.0 103326
12:00−10юз118356 0.0 1031176
15:00−8ююз008229 0.0 1028161
18:00−14юз008716 0.0 102921
21:00−16вюв00856 0.0 103020
5 марта, пт
пт500:00−17в018838 0.0 103020
03:00−16вюв118756 0.0 102720
06:00−17вюв008573 0.0 102520
09:00−12ссз0082100 0.1 102131
12:00−9зюз1189100 1.4 1021154
15:00−7вюв1194100 1.8 1024113
18:00−8ююв1194100 2.5 103121
21:00−11св009778 0.0 103521
6 марта, сб
сб600:00−10всв019789 0.1 103721
03:00−11в009899 0.1 103621
06:00−13юв119999 0.1 103621
09:00−10в019392 0.0 103428
12:00−7зюз118979 0.0 1030174
15:00−5юз008772 0.0 1027162
18:00−10ююз019150 0.0 102721
21:00−12всв008714 0.0 102821